TimeEST,TemperatureF,Dew PointF,Humidity,Sea Level PressureIn,VisibilityMPH,Wind Direction,Wind SpeedMPH,Gust SpeedMPH,PrecipitationIn,Events,Conditions,WindDirDegrees,DateUTC
12:54 AM,32.0,27.0,82,29.97,10.0,North,4.6,-,N/A,,Overcast,350,2013-02-25 05:54:00
1:54 AM,32.0,27.0,82,29.99,10.0,North,3.5,-,N/A,,Overcast,350,2013-02-25 06:54:00
2:54 AM,30.9,27.0,85,30.01,10.0,Calm,Calm,-,N/A,,Overcast,0,2013-02-25 07:54:00
3:24 AM,32.0,26.6,80,29.98,10.0,Calm,Calm,-,N/A,,Overcast,0,2013-02-25 08:24:00
3:54 AM,32.0,27.0,82,30.01,10.0,Calm,Calm,-,N/A,,Overcast,0,2013-02-25 08:54:00
4:54 AM,32.0,27.0,82,30.04,10.0,Calm,Calm,-,N/A,,Overcast,0,2013-02-25 09:54:00
5:52 AM,32.0,26.6,80,30.02,7.0,North,5.8,-,N/A,,Overcast,10,2013-02-25 10:52:00
5:54 AM,32.0,27.0,82,30.05,7.0,North,5.8,-,N/A,,Overcast,10,2013-02-25 10:54:00
6:54 AM,30.9,28.0,89,30.08,6.0,NNW,6.9,-,0.00,,Overcast,340,2013-02-25 11:54:00
7:54 AM,30.9,28.0,89,30.09,5.0,NNW,6.9,-,N/A,,Overcast,340,2013-02-25 12:54:00
8:54 AM,32.0,28.0,85,30.11,6.0,North,6.9,-,N/A,,Overcast,350,2013-02-25 13:54:00
9:54 AM,32.0,28.9,88,30.13,6.0,North,5.8,-,N/A,,Overcast,350,2013-02-25 14:54:00
10:32 AM,33.8,28.4,81,30.10,6.0,North,3.5,-,N/A,,Overcast,10,2013-02-25 15:32:00
10:54 AM,33.1,28.0,82,30.14,9.0,North,4.6,-,N/A,,Overcast,350,2013-02-25 15:54:00
11:33 AM,33.8,28.4,81,30.11,10.0,NNW,6.9,-,N/A,,Overcast,340,2013-02-25 16:33:00
11:54 AM,34.0,28.0,79,30.14,10.0,North,5.8,-,N/A,,Overcast,360,2013-02-25 16:54:00
12:54 PM,34.0,28.0,79,30.14,10.0,North,5.8,-,N/A,,Overcast,350,2013-02-25 17:54:00
1:54 PM,35.1,28.0,76,30.15,10.0,North,5.8,-,N/A,,Overcast,350,2013-02-25 18:54:00
2:04 PM,35.6,28.4,75,30.12,10.0,North,4.6,-,N/A,,Overcast,350,2013-02-25 19:04:00
2:54 PM,35.1,28.0,76,30.17,10.0,NNE,3.5,-,N/A,,Overcast,20,2013-02-25 19:54:00
3:54 PM,35.1,28.0,76,30.19,5.0,Calm,Calm,-,0.00,Snow,Light Snow,0,2013-02-25 20:54:00
4:54 PM,34.0,28.9,82,30.20,7.0,Calm,Calm,-,0.00,,Overcast,0,2013-02-25 21:54:00
5:54 PM,33.1,28.0,82,30.21,9.0,NNE,3.5,-,N/A,,Overcast,30,2013-02-25 22:54:00
6:54 PM,33.1,28.0,82,30.22,10.0,Calm,Calm,-,N/A,,Overcast,0,2013-02-25 23:54:00
7:54 PM,32.0,28.0,85,30.24,10.0,NE,3.5,-,N/A,,Overcast,40,2013-02-26 00:54:00
8:41 PM,32.0,28.4,87,30.21,6.0,Calm,Calm,-,N/A,,Overcast,0,2013-02-26 01:41:00
8:54 PM,32.0,28.9,88,30.25,6.0,Calm,Calm,-,N/A,,Overcast,0,2013-02-26 01:54:00
9:25 PM,32.0,28.4,87,30.22,6.0,Calm,Calm,-,N/A,,Overcast,0,2013-02-26 02:25:00
9:54 PM,32.0,28.0,85,30.25,5.0,Calm,Calm,-,N/A,,Overcast,0,2013-02-26 02:54:00
10:54 PM,30.0,28.0,92,30.26,5.0,Calm,Calm,-,N/A,,Overcast,0,2013-02-26 03:54:00
11:54 PM,30.9,28.9,92,30.26,5.0,Calm,Calm,-,N/A,,Overcast,0,2013-02-26 04:54:00